Location: Columbia
(38.9520°N, 92.3340°W)
Time: 02:28:29
(UTC-05:00)

CZ-2C R/B - Visible Passes

Search period start: 28 August 2015 00:00
Search period end: 07 September 2015 00:00
Orbit: 704 x 909 km, 98.2° (Epoch: 27 August)

Date Brightness Start Highest point End Pass type
(mag) Time Alt. Az. Time Alt. Az. Time Alt. Az.
28 Aug 5.1 02:53:20 20° N 02:53:20 20° N 02:54:53 10° N visible
29 Aug 5.3 02:28:26 20° N 02:28:26 20° N 02:30:02 10° N visible
30 Aug 5.5 02:03:33 17° NNE 02:03:33 17° NNE 02:04:55 10° NNE visible
30 Aug 5.4 03:44:38 11° NW 03:44:38 11° NW 03:44:54 10° NW visible
31 Aug 5.8 01:38:39 12° NNE 01:38:39 12° NNE 01:39:22 10° NNE visible
31 Aug 5.3 03:19:44 15° NNW 03:19:44 15° NNW 03:20:38 10° NNW visible
01 Sep 5.3 02:54:50 18° N 02:54:50 18° N 02:56:03 10° NNW visible
02 Sep 5.4 02:29:57 18° N 02:29:57 18° N 02:31:15 10° N visible
03 Sep 5.6 02:05:04 15° NNE 02:05:04 15° NNE 02:06:10 10° N visible
04 Sep 5.9 01:40:10 12° NNE 01:40:10 12° NNE 01:40:43 10° NNE visible
04 Sep 5.5 03:21:15 13° NNW 03:21:15 13° NNW 03:21:49 10° NNW visible
05 Sep 5.5 02:56:22 15° NNW 02:56:22 15° NNW 02:57:17 10° NNW visible
06 Sep 5.6 02:31:29 16° N 02:31:29 16° N 02:32:29 10° N visible
